| time (UTC) | temp F | wind direction | speed MPH | gust MPH | rain 1hr in | rain 24hr in | rain mn in | humidity % | barometer mb |
| 20260510231338 | 76 | 268 | 5.0 | 10.0 | 0.00 | 0.00 | 0.00 | 21 | 1024.7 |
| 20260510230839 | 76 | 276 | 4.0 | 7.0 | 0.00 | 0.00 | 0.00 | 20 | 1024.6 |
| 20260510230600 | 75 | 206 | 4.0 | 12.0 | 0.00 | 0.00 | 0.00 | 20 | 1024.6 |
| 20260510225839 | 75 | 243 | 5.0 | 14.0 | 0.00 | 0.00 | 0.00 | 19 | 1024.6 |
| 20260510225337 | 76 | 305 | 7.0 | 16.0 | 0.00 | 0.00 | 0.00 | 19 | 1024.6 |
| 20260510224839 | 75 | 254 | 8.0 | 16.0 | 0.00 | 0.00 | 0.00 | 20 | 1024.7 |
| 20260510224338 | 75 | 25 | 5.0 | 10.0 | 0.00 | 0.00 | 0.00 | 21 | 1024.7 |
| 20260510224100 | 76 | 7 | 2.0 | 7.0 | 0.00 | 0.00 | 0.00 | 27 | 1024.6 |
| 20260510223338 | 76 | 32 | 2.0 | 7.0 | 0.00 | 0.00 | 0.00 | 30 | 1024.7 |
| 20260510222837 | 76 | 0 | 4.0 | 6.0 | 0.00 | 0.00 | 0.00 | 30 | 1024.6 |
| 20260510222338 | 76 | 39 | 4.0 | 9.0 | 0.00 | 0.00 | 0.00 | 29 | 1024.6 |
| 20260510222103 | 75 | 45 | 5.0 | 9.0 | 0.00 | 0.00 | 0.00 | 30 | 1024.6 |
| 20260510221338 | 75 | 38 | 2.0 | 7.0 | 0.00 | 0.00 | 0.00 | 32 | 1024.6 |
| 20260510220838 | 74 | 86 | 4.0 | 7.0 | 0.00 | 0.00 | 0.00 | 34 | 1024.7 |
| 20260510220338 | 73 | 86 | 2.0 | 7.0 | 0.00 | 0.00 | 0.00 | 37 | 1024.6 |
| 20260510215837 | 72 | 118 | 2.0 | 11.0 | 0.00 | 0.00 | 0.00 | 36 | 1024.7 |
| 20260510215338 | 72 | 102 | 4.0 | 11.0 | 0.00 | 0.00 | 0.00 | 35 | 1024.7 |
| 20260510214836 | 74 | 96 | 4.0 | 11.0 | 0.00 | 0.00 | 0.00 | 36 | 1024.7 |
| 20260510214337 | 74 | 103 | 4.0 | 12.0 | 0.00 | 0.00 | 0.00 | 37 | 1024.6 |
| 20260510214055 | 73 | 123 | 6.0 | 12.0 | 0.00 | 0.00 | 0.00 | 37 | 1024.7 |
| 20260510213558 | 72 | 120 | 8.0 | 12.0 | 0.00 | 0.00 | 0.00 | 36 | 1024.8 |
| 20260510212837 | 72 | 117 | 5.0 | 13.0 | 0.00 | 0.00 | 0.00 | 36 | 1024.9 |
| 20260510212336 | 72 | 113 | 6.0 | 13.0 | 0.00 | 0.00 | 0.00 | 37 | 1025.1 |
| 20260510211837 | 72 | 130 | 6.0 | 11.0 | 0.00 | 0.00 | 0.00 | 37 | 1025.1 |
| 20260510211336 | 72 | 114 | 4.0 | 10.0 | 0.00 | 0.00 | 0.00 | 37 | 1025.2 |
| 20260510211059 | 71 | 154 | 5.0 | 9.0 | 0.00 | 0.00 | 0.00 | 38 | 1025.3 |
| 20260510210336 | 71 | 117 | 4.0 | 7.0 | 0.00 | 0.00 | 0.00 | 39 | 1025.2 |
| 20260510205836 | 70 | 104 | 4.0 | 6.0 | 0.00 | 0.00 | 0.00 | 39 | 1025.5 |
| 20260510205604 | 70 | 63 | 3.0 | 6.0 | 0.00 | 0.00 | 0.00 | 38 | 1025.5 |
| 20260510205101 | 70 | 135 | 3.0 | 6.0 | 0.00 | 0.00 | 0.00 | 38 | 1025.4 |
| 20260510204337 | 71 | 114 | 2.0 | 6.0 | 0.00 | 0.00 | 0.00 | 37 | 1025.5 |
| 20260510203835 | 71 | 85 | 1.0 | 2.0 | 0.00 | 0.00 | 0.00 | 37 | 1025.5 |
| 20260510203337 | 71 | 271 | 0.0 | 1.0 | 0.00 | 0.00 | 0.00 | 36 | 1025.4 |
| 20260510202835 | 71 | 350 | 0.0 | 2.0 | 0.00 | 0.00 | 0.00 | 37 | 1025.2 |
| 20260510202335 | 70 | 336 | 0.0 | 3.0 | 0.00 | 0.00 | 0.00 | 36 | 1025.5 |
| 20260510202320 | 71 | 334 | 2.0 | 3.0 | 0.00 | 0.00 | 0.00 | 37 | 1025.5 |
| 20260510201334 | 70 | 319 | 0.0 | 3.0 | 0.00 | 0.00 | 0.00 | 38 | 1025.6 |
| 20260510201101 | 71 | 275 | 0.0 | 3.0 | 0.00 | 0.00 | 0.00 | 39 | 1025.6 |
| 20260510200335 | 70 | 25 | 2.0 | 3.0 | 0.00 | 0.00 | 0.00 | 39 | 1025.6 |
| 20260510200057 | 70 | 7 | 2.0 | 5.0 | 0.00 | 0.00 | 0.00 | 37 | 1025.7 |
| 20260510195334 | 69 | 27 | 2.0 | 5.0 | 0.00 | 0.00 | 0.00 | 38 | 1025.8 |
| 20260510194835 | 69 | 73 | 1.0 | 4.0 | 0.00 | 0.00 | 0.00 | 38 | 1026.0 |
| 20260510194334 | 69 | 124 | 2.0 | 5.0 | 0.00 | 0.00 | 0.00 | 38 | 1026.1 |
| 20260510193833 | 69 | 111 | 2.0 | 5.0 | 0.00 | 0.00 | 0.00 | 37 | 1026.2 |
| 20260510193334 | 69 | 97 | 2.0 | 7.0 | 0.00 | 0.00 | 0.00 | 37 | 1026.1 |
| 20260510192833 | 69 | 97 | 3.0 | 7.0 | 0.00 | 0.00 | 0.00 | 39 | 1026.1 |
| 20260510192335 | 69 | 102 | 4.0 | 9.0 | 0.00 | 0.00 | 0.00 | 40 | 1026.1 |
| 20260510191833 | 69 | 102 | 4.0 | 9.0 | 0.00 | 0.00 | 0.00 | 37 | 1026.2 |
| 20260510191553 | 69 | 131 | 5.0 | 9.0 | 0.00 | 0.00 | 0.00 | 38 | 1026.2 |
| 20260510191058 | 69 | 128 | 3.0 | 10.0 | 0.00 | 0.00 | 0.00 | 39 | 1026.2 |
| 20260510190334 | 69 | 141 | 5.0 | 10.0 | 0.00 | 0.00 | 0.00 | 39 | 1026.2 |
| 20260510185833 | 69 | 145 | 3.0 | 7.0 | 0.00 | 0.00 | 0.00 | 39 | 1026.2 |
| 20260510185554 | 69 | 56 | 4.0 | 7.0 | 0.00 | 0.00 | 0.00 | 40 | 1026.1 |
| 20260510184833 | 69 | 75 | 4.0 | 7.0 | 0.00 | 0.00 | 0.00 | 40 | 1026.3 |
| 20260510184332 | 68 | 41 | 2.0 | 7.0 | 0.00 | 0.00 | 0.00 | 41 | 1026.4 |
| 20260510183833 | 68 | 96 | 2.0 | 6.0 | 0.00 | 0.00 | 0.00 | 41 | 1026.4 |
| 20260510183333 | 68 | 85 | 2.0 | 6.0 | 0.00 | 0.00 | 0.00 | 39 | 1026.3 |
| 20260510182833 | 68 | 75 | 3.0 | 6.0 | 0.00 | 0.00 | 0.00 | 41 | 1026.3 |
| 20260510182332 | 68 | 114 | 2.0 | 5.0 | 0.00 | 0.00 | 0.00 | 39 | 1026.3 |
| 20260510181837 | 67 | 75 | 3.0 | 5.0 | 0.00 | 0.00 | 0.00 | 42 | 1026.3 |
| 20260510181554 | 67 | 138 | 2.0 | 5.0 | 0.00 | 0.00 | 0.00 | 41 | 1026.4 |
| 20260510181048 | 67 | 114 | 2.0 | 5.0 | 0.00 | 0.00 | 0.00 | 41 | 1026.5 |
| 20260510180333 | 66 | 279 | 1.0 | 3.0 | 0.00 | 0.00 | 0.00 | 41 | 1026.6 |
| 20260510180051 | 66 | 341 | 1.0 | 3.0 | 0.00 | 0.00 | 0.00 | 42 | 1026.6 |
| 20260510175333 | 65 | 111 | 0.0 | 2.0 | 0.00 | 0.00 | 0.00 | 44 | 1026.7 |
| 20260510174831 | 64 | 118 | 1.0 | 4.0 | 0.00 | 0.00 | 0.00 | 45 | 1026.8 |
| 20260510174333 | 63 | 148 | 1.0 | 5.0 | 0.00 | 0.00 | 0.00 | 45 | 1026.8 |
| 20260510173831 | 63 | 130 | 3.0 | 6.0 | 0.00 | 0.00 | 0.00 | 46 | 1026.7 |
| 20260510173408 | 62 | 111 | 4.0 | 7.0 | 0.00 | 0.00 | 0.00 | 47 | 1026.8 |
| 20260510173330 | 62 | 134 | 3.0 | 7.0 | 0.00 | 0.00 | 0.00 | 46 | 1026.8 |
| 20260510173316 | 62 | 121 | 3.0 | 7.0 | 0.00 | 0.00 | 0.00 | 47 | 1026.8 |
| 20260510171831 | 62 | 100 | 4.0 | 6.0 | 0.00 | 0.00 | 0.00 | 47 | 1026.8 |
| 20260510171550 | 62 | 100 | 3.0 | 4.0 | 0.00 | 0.00 | 0.00 | 47 | 1026.7 |
| 20260510170832 | 62 | 80 | 1.0 | 3.0 | 0.00 | 0.00 | 0.00 | 47 | 1026.9 |
| 20260510170330 | 62 | 145 | 2.0 | 3.0 | 0.00 | 0.00 | 0.00 | 47 | 1027.0 |
| 20260510165832 | 61 | 63 | 1.0 | 3.0 | 0.00 | 0.00 | 0.00 | 48 | 1026.9 |
| 20260510165330 | 60 | 54 | 0.0 | 3.0 | 0.00 | 0.00 | 0.00 | 49 | 1026.9 |
| 20260510165050 | 60 | 80 | 0.0 | 3.0 | 0.00 | 0.00 | 0.00 | 51 | 1027.0 |
| 20260510164327 | 59 | 151 | 1.0 | 5.0 | 0.00 | 0.00 | 0.00 | 50 | 1027.0 |
| 20260510164056 | 59 | 102 | 2.0 | 5.0 | 0.00 | 0.00 | 0.00 | 50 | 1026.9 |
| 20260510163331 | 60 | 124 | 3.0 | 6.0 | 0.00 | 0.00 | 0.00 | 51 | 1026.9 |
| 20260510163049 | 60 | 130 | 4.0 | 6.0 | 0.00 | 0.00 | 0.00 | 50 | 1026.9 |
| 20260510162331 | 59 | 78 | 2.0 | 5.0 | 0.00 | 0.00 | 0.00 | 52 | 1027.0 |
| 20260510161829 | 59 | 107 | 1.0 | 3.0 | 0.00 | 0.00 | 0.00 | 53 | 1027.0 |
| 20260510161329 | 58 | 8 | 0.0 | 1.0 | 0.00 | 0.00 | 0.00 | 57 | 1027.5 |
| 20260510161058 | 58 | 350 | 0.0 | 1.0 | 0.00 | 0.00 | 0.00 | 58 | 1027.6 |
| 20260510160329 | 57 | 347 | 0.0 | 1.0 | 0.00 | 0.00 | 0.00 | 58 | 1027.8 |
| 20260510155829 | 57 | 343 | 0.0 | 1.0 | 0.00 | 0.00 | 0.00 | 57 | 1027.7 |
| 20260510155329 | 57 | 343 | 0.0 | 1.0 | 0.00 | 0.00 | 0.00 | 54 | 1027.7 |
| 20260510154829 | 58 | 7 | 0.0 | 2.0 | 0.00 | 0.00 | 0.00 | 57 | 1027.6 |
| 20260510154329 | 58 | 149 | 1.0 | 2.0 | 0.00 | 0.00 | 0.00 | 54 | 1027.9 |
| 20260510153830 | 57 | 197 | 1.0 | 2.0 | 0.00 | 0.00 | 0.00 | 53 | 1027.8 |
| 20260510153328 | 57 | 86 | 1.0 | 3.0 | 0.00 | 0.00 | 0.00 | 55 | 1028.0 |
| 20260510152828 | 56 | 118 | 1.0 | 3.0 | 0.00 | 0.00 | 0.00 | 57 | 1028.1 |
| 20260510152546 | 56 | 87 | 0.0 | 1.0 | 0.00 | 0.00 | 0.00 | 58 | 1028.2 |
| 20260510151828 | 55 | 106 | 0.0 | 1.0 | 0.00 | 0.00 | 0.00 | 61 | 1028.4 |
| 20260510151325 | 54 | 268 | 0.0 | 1.0 | 0.00 | 0.00 | 0.00 | 62 | 1028.5 |
| 20260510150824 | 53 | 258 | 0.0 | 0.0 | 0.00 | 0.00 | 0.00 | 66 | 1028.5 |
| 20260510150328 | 53 | 257 | 0.0 | 0.0 | 0.00 | 0.00 | 0.00 | 67 | 1028.6 |
| 20260510150050 | 52 | 257 | 0.0 | 0.0 | 0.00 | 0.00 | 0.00 | 69 | 1028.7 |
| 20260510145819 | 49 | 257 | 0.0 | 0.0 | 0.00 | 0.00 | 0.00 | 72 | 1028.7 |
| 20260510144827 | 47 | 257 | 0.0 | 0.0 | 0.00 | 0.00 | 0.00 | 76 | 1028.6 |
| 20260510144327 | 46 | 257 | 0.0 | 0.0 | 0.00 | 0.00 | 0.00 | 79 | 1028.6 |
| 20260510143827 | 46 | 331 | 0.0 | 0.0 | 0.00 | 0.00 | 0.00 | 81 | 1028.6 |
| 20260510143327 | 45 | 49 | 0.0 | 0.0 | 0.00 | 0.00 | 0.00 | 82 | 1028.5 |
| 20260510142827 | 45 | 49 | 0.0 | 0.0 | 0.00 | 0.00 | 0.00 | 83 | 1028.6 |
| 20260510142327 | 45 | 49 | 0.0 | 0.0 | 0.00 | 0.00 | 0.00 | 83 | 1028.6 |
| 20260510141827 | 44 | 49 | 0.0 | 0.0 | 0.00 | 0.00 | 0.00 | 84 | 1028.6 |
| 20260510141551 | 44 | 49 | 0.0 | 0.0 | 0.00 | 0.00 | 0.00 | 86 | 1028.6 |
| 20260510140827 | 43 | 49 | 0.0 | 0.0 | 0.00 | 0.00 | 0.00 | 86 | 1028.6 |
| 20260510140326 | 42 | 51 | 0.0 | 0.0 | 0.00 | 0.00 | 0.00 | 86 | 1028.7 |
| 20260510135826 | 42 | 52 | 0.0 | 0.0 | 0.00 | 0.00 | 0.00 | 87 | 1028.6 |
| 20260510135553 | 41 | 52 | 0.0 | 0.0 | 0.00 | 0.00 | 0.00 | 88 | 1028.6 |
| 20260510134825 | 40 | 52 | 0.0 | 0.0 | 0.00 | 0.00 | 0.00 | 88 | 1028.6 |
| 20260510134548 | 40 | 52 | 0.0 | 0.0 | 0.00 | 0.00 | 0.00 | 89 | 1028.6 |
| 20260510133822 | 40 | 52 | 0.0 | 0.0 | 0.00 | 0.00 | 0.00 | 89 | 1028.7 |
| 20260510133327 | 39 | 52 | 0.0 | 0.0 | 0.00 | 0.00 | 0.00 | 90 | 1028.7 |
| 20260510133050 | 38 | 52 | 0.0 | 0.0 | 0.00 | 0.00 | 0.00 | 89 | 1028.7 |
| 20260510132326 | 38 | 52 | 0.0 | 1.0 | 0.00 | 0.00 | 0.00 | 89 | 1028.7 |
| 20260510131825 | 38 | 52 | 0.0 | 1.0 | 0.00 | 0.00 | 0.00 | 89 | 1028.6 |
| 20260510131325 | 38 | 221 | 0.0 | 0.0 | 0.00 | 0.00 | 0.00 | 89 | 1028.5 |
| 20260510130822 | 38 | 221 | 0.0 | 1.0 | 0.00 | 0.00 | 0.00 | 90 | 1028.4 |
| 20260510130541 | 38 | 221 | 0.0 | 1.0 | 0.00 | 0.00 | 0.00 | 89 | 1028.5 |
| 20260510125822 | 38 | 221 | 0.0 | 0.0 | 0.00 | 0.00 | 0.00 | 89 | 1028.6 |
| 20260510125324 | 38 | 221 | 0.0 | 0.0 | 0.00 | 0.00 | 0.00 | 88 | 1028.6 |
| 20260510124826 | 39 | 221 | 0.0 | 0.0 | 0.00 | 0.00 | 0.00 | 89 | 1028.6 |
| 20260510124551 | 38 | 221 | 0.0 | 0.0 | 0.00 | 0.00 | 0.00 | 88 | 1028.6 |
| 20260510123824 | 39 | 221 | 0.0 | 0.0 | 0.00 | 0.00 | 0.00 | 88 | 1028.6 |
| 20260510123324 | 39 | 221 | 0.0 | 0.0 | 0.00 | 0.00 | 0.00 | 88 | 1028.6 |
| 20260510122824 | 39 | 221 | 0.0 | 0.0 | 0.00 | 0.00 | 0.00 | 88 | 1028.6 |
| 20260510122321 | 39 | 221 | 0.0 | 0.0 | 0.00 | 0.00 | 0.00 | 87 | 1028.7 |
| 20260510121819 | 39 | 221 | 0.0 | 0.0 | 0.00 | 0.00 | 0.00 | 87 | 1028.6 |
| 20260510121542 | 39 | 221 | 0.0 | 0.0 | 0.00 | 0.00 | 0.00 | 87 | 1028.6 |
| 20260510120823 | 39 | 221 | 0.0 | 0.0 | 0.00 | 0.00 | 0.00 | 87 | 1028.6 |
| 20260510120325 | 39 | 221 | 0.0 | 0.0 | 0.00 | 0.00 | 0.00 | 87 | 1028.6 |
| 20260510115823 | 39 | 221 | 0.0 | 0.0 | 0.00 | 0.00 | 0.00 | 88 | 1028.8 |
| 20260510115543 | 39 | 221 | 0.0 | 0.0 | 0.00 | 0.00 | 0.00 | 88 | 1028.8 |
| 20260510114823 | 39 | 221 | 0.0 | 0.0 | 0.00 | 0.00 | 0.00 | 87 | 1028.8 |
| 20260510114319 | 40 | 221 | 0.0 | 0.0 | 0.00 | 0.00 | 0.00 | 86 | 1028.7 |
| 20260510113820 | 40 | 221 | 0.0 | 0.0 | 0.00 | 0.00 | 0.00 | 86 | 1028.8 |
| 20260510113548 | 40 | 221 | 0.0 | 0.0 | 0.00 | 0.00 | 0.00 | 87 | 1028.7 |
| 20260510112820 | 40 | 221 | 0.0 | 0.0 | 0.00 | 0.00 | 0.00 | 88 | 1028.7 |
| 20260510112548 | 40 | 221 | 0.0 | 0.0 | 0.00 | 0.00 | 0.00 | 87 | 1028.8 |
| 20260510111824 | 40 | 221 | 0.0 | 0.0 | 0.00 | 0.00 | 0.00 | 87 | 1028.7 |
| 20260510111322 | 40 | 221 | 0.0 | 0.0 | 0.00 | 0.00 | 0.00 | 88 | 1028.8 |
| 20260510110822 | 40 | 221 | 0.0 | 0.0 | 0.00 | 0.00 | 0.00 | 86 | 1028.8 |
| 20260510110323 | 41 | 221 | 0.0 | 0.0 | 0.00 | 0.00 | 0.00 | 85 | 1028.8 |
| 20260510105822 | 41 | 221 | 0.0 | 0.0 | 0.00 | 0.00 | 0.00 | 85 | 1028.8 |
| 20260510105322 | 41 | 221 | 0.0 | 0.0 | 0.00 | 0.00 | 0.00 | 84 | 1028.8 |
| 20260510105306 | 41 | 221 | 0.0 | 0.0 | 0.00 | 0.00 | 0.00 | 84 | 1028.8 |
| 20260510104320 | 41 | 221 | 0.0 | 0.0 | 0.00 | 0.00 | 0.00 | 85 | 1028.9 |
| 20260510103821 | 41 | 221 | 0.0 | 0.0 | 0.00 | 0.00 | 0.00 | 85 | 1028.9 |
| 20260510103323 | 41 | 214 | 0.0 | 0.0 | 0.00 | 0.00 | 0.00 | 86 | 1028.9 |
| 20260510102822 | 41 | 209 | 0.0 | 0.0 | 0.00 | 0.00 | 0.00 | 85 | 1028.9 |
| 20260510102322 | 42 | 209 | 0.0 | 0.0 | 0.00 | 0.00 | 0.00 | 85 | 1029.1 |
| 20260510101821 | 42 | 209 | 0.0 | 0.0 | 0.00 | 0.00 | 0.00 | 84 | 1029.1 |
| 20260510101321 | 42 | 210 | 0.0 | 0.0 | 0.00 | 0.00 | 0.00 | 84 | 1029.1 |
| 20260510100818 | 42 | 209 | 0.0 | 0.0 | 0.00 | 0.00 | 0.00 | 82 | 1029.1 |
| 20260510100317 | 42 | 209 | 0.0 | 0.0 | 0.00 | 0.00 | 0.00 | 81 | 1029.1 |
| 20260510095819 | 42 | 209 | 0.0 | 0.0 | 0.00 | 0.00 | 0.00 | 82 | 1028.9 |
| 20260510095320 | 42 | 209 | 0.0 | 0.0 | 0.00 | 0.00 | 0.00 | 81 | 1029.1 |
| 20260510094821 | 43 | 209 | 0.0 | 0.0 | 0.00 | 0.00 | 0.00 | 81 | 1029.1 |
| 20260510094320 | 43 | 209 | 0.0 | 0.0 | 0.00 | 0.00 | 0.00 | 80 | 1029.1 |
| 20260510093820 | 43 | 209 | 0.0 | 0.0 | 0.00 | 0.00 | 0.00 | 80 | 1029.2 |
| 20260510093320 | 43 | 209 | 0.0 | 0.0 | 0.00 | 0.00 | 0.00 | 81 | 1029.2 |
| 20260510092820 | 43 | 207 | 0.0 | 0.0 | 0.00 | 0.00 | 0.00 | 81 | 1029.1 |
| 20260510092321 | 43 | 207 | 0.0 | 0.0 | 0.00 | 0.00 | 0.00 | 81 | 1029.1 |
| 20260510091820 | 43 | 206 | 0.0 | 0.0 | 0.00 | 0.00 | 0.00 | 81 | 1029.1 |
| 20260510091318 | 43 | 206 | 0.0 | 0.0 | 0.00 | 0.00 | 0.00 | 80 | 1029.2 |
| 20260510090819 | 43 | 204 | 0.0 | 0.0 | 0.00 | 0.00 | 0.00 | 80 | 1029.2 |
| 20260510090319 | 44 | 204 | 0.0 | 0.0 | 0.00 | 0.00 | 0.00 | 79 | 1029.2 |
| 20260510085819 | 44 | 204 | 0.0 | 0.0 | 0.00 | 0.00 | 0.00 | 78 | 1029.2 |
| 20260510085319 | 44 | 204 | 0.0 | 0.0 | 0.00 | 0.00 | 0.00 | 78 | 1029.3 |
| 20260510084819 | 44 | 204 | 0.0 | 0.0 | 0.00 | 0.00 | 0.00 | 77 | 1029.2 |
| 20260510084319 | 45 | 204 | 0.0 | 0.0 | 0.00 | 0.00 | 0.00 | 76 | 1029.1 |
| 20260510084047 | 45 | 204 | 0.0 | 1.0 | 0.00 | 0.00 | 0.00 | 75 | 1029.1 |
| 20260510083541 | 45 | 204 | 0.0 | 1.0 | 0.00 | 0.00 | 0.00 | 76 | 1029.1 |
| 20260510082817 | 45 | 202 | 0.0 | 0.0 | 0.00 | 0.00 | 0.00 | 78 | 1029.1 |
| 20260510082318 | 45 | 202 | 0.0 | 0.0 | 0.00 | 0.00 | 0.00 | 77 | 1029.2 |
| 20260510081818 | 46 | 202 | 0.0 | 0.0 | 0.00 | 0.00 | 0.00 | 77 | 1029.2 |
| 20260510081539 | 46 | 202 | 0.0 | 0.0 | 0.00 | 0.00 | 0.00 | 76 | 1029.2 |
| 20260510080819 | 46 | 202 | 0.0 | 0.0 | 0.00 | 0.00 | 0.00 | 75 | 1029.2 |
| 20260510080318 | 46 | 202 | 0.0 | 0.0 | 0.00 | 0.00 | 0.00 | 75 | 1029.2 |
| 20260510075819 | 46 | 202 | 0.0 | 0.0 | 0.00 | 0.00 | 0.00 | 75 | 1029.2 |
| 20260510075318 | 47 | 161 | 0.0 | 0.0 | 0.00 | 0.00 | 0.00 | 72 | 1029.2 |
| 20260510074817 | 47 | 161 | 0.0 | 1.0 | 0.00 | 0.00 | 0.00 | 72 | 1029.2 |
| 20260510074316 | 47 | 161 | 0.0 | 1.0 | 0.00 | 0.00 | 0.00 | 72 | 1029.1 |
| 20260510074039 | 47 | 161 | 0.0 | 0.0 | 0.00 | 0.00 | 0.00 | 72 | 1029.1 |
| 20260510073317 | 48 | 161 | 0.0 | 0.0 | 0.00 | 0.00 | 0.00 | 70 | 1029.2 |
| 20260510072817 | 48 | 161 | 0.0 | 0.0 | 0.00 | 0.00 | 0.00 | 69 | 1029.2 |
| 20260510072317 | 48 | 161 | 0.0 | 1.0 | 0.00 | 0.00 | 0.00 | 68 | 1028.9 |
| 20260510071818 | 49 | 159 | 0.0 | 1.0 | 0.00 | 0.00 | 0.00 | 68 | 1028.9 |
| 20260510071317 | 49 | 255 | 0.0 | 0.0 | 0.00 | 0.00 | 0.00 | 68 | 1028.9 |
| 20260510070817 | 50 | 255 | 0.0 | 0.0 | 0.00 | 0.00 | 0.00 | 66 | 1028.9 |
| 20260510070316 | 50 | 255 | 0.0 | 0.0 | 0.00 | 0.00 | 0.00 | 64 | 1028.8 |
| 20260510065818 | 50 | 255 | 0.0 | 0.0 | 0.00 | 0.00 | 0.00 | 64 | 1028.9 |
| 20260510065316 | 50 | 255 | 0.0 | 0.0 | 0.00 | 0.00 | 0.00 | 65 | 1028.9 |
| 20260510064816 | 50 | 255 | 0.0 | 0.0 | 0.00 | 0.00 | 0.00 | 65 | 1029.1 |
| 20260510064316 | 50 | 262 | 0.0 | 0.0 | 0.00 | 0.00 | 0.00 | 66 | 1028.9 |
| 20260510063816 | 51 | 262 | 0.0 | 0.0 | 0.00 | 0.00 | 0.00 | 68 | 1029.1 |
| 20260510063316 | 51 | 262 | 0.0 | 0.0 | 0.00 | 0.00 | 0.00 | 66 | 1029.1 |
| 20260510062815 | 51 | 262 | 0.0 | 1.0 | 0.00 | 0.00 | 0.00 | 64 | 1029.1 |
| 20260510062544 | 51 | 262 | 0.0 | 1.0 | 0.00 | 0.00 | 0.00 | 64 | 1029.1 |
| 20260510062032 | 51 | 251 | 0.0 | 0.0 | 0.00 | 0.00 | 0.00 | 66 | 1029.1 |
| 20260510061317 | 52 | 251 | 0.0 | 0.0 | 0.00 | 0.00 | 0.00 | 64 | 1029.1 |
| 20260510060816 | 52 | 251 | 0.0 | 0.0 | 0.00 | 0.00 | 0.00 | 63 | 1029.1 |
| 20260510060536 | 53 | 296 | 0.0 | 0.0 | 0.00 | 0.00 | 0.00 | 61 | 1028.9 |
| 20260510055815 | 53 | 316 | 0.0 | 1.0 | 0.00 | 0.00 | 0.00 | 60 | 1028.8 |
| 20260510055315 | 54 | 49 | 0.0 | 1.0 | 0.00 | 0.00 | 0.00 | 58 | 1028.9 |
| 20260510054815 | 55 | 49 | 0.0 | 1.0 | 0.00 | 0.00 | 0.00 | 58 | 1028.8 |
| 20260510054315 | 57 | 264 | 0.0 | 1.0 | 0.00 | 0.00 | 0.00 | 54 | 1028.9 |
| 20260510053816 | 58 | 120 | 0.0 | 3.0 | 0.00 | 0.00 | 0.00 | 52 | 1028.8 |
| 20260510053315 | 59 | 120 | 1.0 | 6.0 | 0.00 | 0.00 | 0.00 | 47 | 1028.6 |
| 20260510052816 | 59 | 124 | 1.0 | 6.0 | 0.00 | 0.00 | 0.00 | 47 | 1028.7 |
| 20260510052314 | 58 | 183 | 3.0 | 6.0 | 0.00 | 0.00 | 0.00 | 48 | 1028.7 |
| 20260510051815 | 58 | 233 | 2.0 | 5.0 | 0.00 | 0.00 | 0.00 | 50 | 1028.9 |
| 20260510051314 | 60 | 134 | 0.0 | 6.0 | 0.00 | 0.00 | 0.00 | 48 | 1028.8 |
| 20260510050814 | 60 | 162 | 3.0 | 6.0 | 0.00 | 0.00 | 0.00 | 46 | 1028.9 |
| 20260510050314 | 58 | 190 | 4.0 | 5.0 | 0.00 | 0.00 | 0.00 | 48 | 1028.9 |
| 20260510045814 | 57 | 247 | 1.0 | 1.0 | 0.00 | 0.00 | 0.00 | 53 | 1028.8 |
| 20260510045314 | 57 | 244 | 0.0 | 0.0 | 0.00 | 0.00 | 0.00 | 53 | 1028.7 |
| 20260510044813 | 58 | 244 | 0.0 | 1.0 | 0.00 | 0.00 | 0.00 | 52 | 1028.8 |
| 20260510044315 | 58 | 243 | 0.0 | 1.0 | 0.00 | 0.00 | 0.00 | 51 | 1028.9 |
| 20260510044031 | 59 | 231 | 0.0 | 0.0 | 0.00 | 0.00 | 0.00 | 51 | 1028.8 |
| 20260510043313 | 59 | 157 | 0.0 | 0.0 | 0.00 | 0.00 | 0.00 | 52 | 1028.8 |
| 20260510042813 | 59 | 157 | 0.0 | 2.0 | 0.00 | 0.00 | 0.00 | 51 | 1028.7 |
| 20260510042312 | 60 | 155 | 0.0 | 2.0 | 0.00 | 0.00 | 0.00 | 51 | 1028.6 |
| 20260510041814 | 60 | 243 | 0.0 | 1.0 | 0.00 | 0.00 | 0.00 | 50 | 1028.6 |
| 20260510041313 | 60 | 252 | 0.0 | 2.0 | 0.00 | 0.00 | 0.00 | 49 | 1028.6 |
| 20260510040814 | 61 | 214 | 1.0 | 3.0 | 0.00 | 0.00 | 0.00 | 48 | 1028.5 |
| 20260510040312 | 61 | 223 | 1.0 | 4.0 | 0.00 | 0.00 | 0.00 | 48 | 1028.6 |
| 20260510035812 | 62 | 216 | 2.0 | 4.0 | 0.00 | 0.00 | 0.00 | 48 | 1028.5 |
| 20260510035313 | 62 | 216 | 0.0 | 2.0 | 0.00 | 0.00 | 0.00 | 48 | 1028.4 |
| 20260510034813 | 63 | 231 | 0.0 | 1.0 | 0.00 | 0.00 | 0.00 | 48 | 1028.4 |
| 20260510034313 | 63 | 231 | 0.0 | 1.0 | 0.00 | 0.00 | 0.00 | 44 | 1028.4 |
| 20260510033812 | 64 | 216 | 0.0 | 3.0 | 0.00 | 0.00 | 0.00 | 44 | 1028.5 |
| 20260510033538 | 66 | 116 | 0.0 | 3.0 | 0.00 | 0.00 | 0.00 | 39 | 1028.3 |
| 20260510032811 | 65 | 140 | 0.0 | 4.0 | 0.00 | 0.00 | 0.00 | 39 | 1028.1 |
| 20260510032313 | 65 | 169 | 2.0 | 4.0 | 0.00 | 0.00 | 0.00 | 41 | 1028.2 |
| 20260510032306 | 65 | 210 | 0.0 | 1.0 | 0.00 | 0.00 | 0.00 | 41 | 1028.1 |
| 20260510031312 | 65 | 210 | 0.0 | 0.0 | 0.00 | 0.00 | 0.00 | 43 | 1028.0 |
| 20260510030811 | 66 | 210 | 0.0 | 1.0 | 0.00 | 0.00 | 0.00 | 41 | 1028.1 |
| 20260510030311 | 66 | 210 | 0.0 | 1.0 | 0.00 | 0.00 | 0.00 | 40 | 1028.1 |
| 20260510025811 | 67 | 162 | 0.0 | 1.0 | 0.00 | 0.00 | 0.00 | 41 | 1028.2 |
| 20260510025310 | 68 | 162 | 0.0 | 1.0 | 0.00 | 0.00 | 0.00 | 38 | 1028.1 |
| 20260510024811 | 68 | 111 | 0.0 | 1.0 | 0.00 | 0.00 | 0.00 | 36 | 1028.0 |
| 20260510024311 | 69 | 111 | 0.0 | 2.0 | 0.00 | 0.00 | 0.00 | 35 | 1028.0 |
| 20260510023812 | 69 | 111 | 0.0 | 3.0 | 0.00 | 0.00 | 0.00 | 35 | 1028.1 |
| 20260510023310 | 70 | 110 | 1.0 | 3.0 | 0.00 | 0.00 | 0.00 | 34 | 1028.2 |
| 20260510023035 | 70 | 120 | 0.0 | 3.0 | 0.00 | 0.00 | 0.00 | 33 | 1028.1 |
| 20260510022538 | 71 | 113 | 0.0 | 3.0 | 0.00 | 0.00 | 0.00 | 33 | 1028.1 |
| 20260510022034 | 71 | 123 | 0.0 | 5.0 | 0.00 | 0.00 | 0.00 | 33 | 1028.1 |
| 20260510021310 | 72 | 102 | 0.0 | 9.0 | 0.00 | 0.00 | 0.00 | 31 | 1028.2 |
| 20260510020810 | 72 | 107 | 2.0 | 9.0 | 0.00 | 0.00 | 0.00 | 30 | 1028.1 |
| 20260510020535 | 72 | 97 | 4.0 | 9.0 | 0.00 | 0.00 | 0.00 | 29 | 1028.2 |
| 20260510015809 | 73 | 134 | 4.0 | 9.0 | 0.00 | 0.00 | 0.00 | 30 | 1028.3 |
| 20260510015311 | 73 | 113 | 3.0 | 9.0 | 0.00 | 0.00 | 0.00 | 30 | 1028.2 |
| 20260510014809 | 73 | 69 | 4.0 | 7.0 | 0.00 | 0.00 | 0.00 | 29 | 1028.2 |
| 20260510014309 | 73 | 142 | 4.0 | 9.0 | 0.00 | 0.00 | 0.00 | 29 | 1028.3 |
| 20260510013809 | 74 | 149 | 5.0 | 9.0 | 0.00 | 0.00 | 0.00 | 30 | 1028.2 |
| 20260510013532 | 74 | 142 | 4.0 | 7.0 | 0.00 | 0.00 | 0.00 | 29 | 1028.2 |
| 20260510012810 | 73 | 148 | 4.0 | 6.0 | 0.00 | 0.00 | 0.00 | 29 | 1028.3 |
| 20260510012534 | 73 | 142 | 2.0 | 9.0 | 0.00 | 0.00 | 0.00 | 31 | 1028.4 |
| 20260510012027 | 73 | 103 | 4.0 | 11.0 | 0.00 | 0.00 | 0.00 | 30 | 1028.3 |
| 20260510011309 | 73 | 127 | 6.0 | 11.0 | 0.00 | 0.00 | 0.00 | 29 | 1028.3 |
| 20260510011028 | 73 | 118 | 4.0 | 10.0 | 0.00 | 0.00 | 0.00 | 30 | 1028.4 |
| 20260510010310 | 73 | 124 | 6.0 | 9.0 | 0.00 | 0.00 | 0.00 | 29 | 1028.5 |
| 20260510005808 | 73 | 73 | 2.0 | 9.0 | 0.00 | 0.00 | 0.00 | 30 | 1028.5 |
| 20260510005309 | 73 | 118 | 5.0 | 9.0 | 0.00 | 0.00 | 0.00 | 29 | 1028.6 |
| 20260510005031 | 74 | 116 | 4.0 | 9.0 | 0.00 | 0.00 | 0.00 | 29 | 1028.5 |
| 20260510004536 | 74 | 133 | 3.0 | 12.0 | 0.00 | 0.00 | 0.00 | 30 | 1028.6 |
| 20260510003808 | 74 | 128 | 5.0 | 12.0 | 0.00 | 0.00 | 0.00 | 29 | 1028.6 |
| 20260510003310 | 74 | 113 | 5.0 | 9.0 | 0.00 | 0.00 | 0.00 | 29 | 1028.6 |
| 20260510002808 | 74 | 92 | 4.0 | 11.0 | 0.00 | 0.00 | 0.00 | 29 | 1028.5 |
| 20260510002309 | 74 | 100 | 4.0 | 11.0 | 0.00 | 0.00 | 0.00 | 29 | 1028.5 |
| 20260510001808 | 74 | 107 | 3.0 | 10.0 | 0.00 | 0.00 | 0.00 | 28 | 1028.6 |
| 20260510001307 | 74 | 109 | 5.0 | 9.0 | 0.00 | 0.00 | 0.00 | 27 | 1028.6 |
| 20260510001030 | 74 | 130 | 4.0 | 9.0 | 0.00 | 0.00 | 0.00 | 28 | 1028.5 |
| 20260510000308 | 74 | 97 | 5.0 | 10.0 | 0.00 | 0.00 | 0.00 | 27 | 1028.6 |
| 20260509235808 | 75 | 145 | 5.0 | 10.0 | 0.00 | 0.00 | 0.00 | 27 | 1028.6 |
| 20260509235307 | 74 | 107 | 4.0 | 10.0 | 0.00 | 0.00 | 0.00 | 28 | 1028.7 |
| 20260509234808 | 74 | 89 | 4.0 | 11.0 | 0.00 | 0.00 | 0.00 | 28 | 1028.7 |
| 20260509234307 | 74 | 116 | 8.0 | 11.0 | 0.00 | 0.00 | 0.00 | 27 | 1028.7 |
| 20260509233808 | 75 | 107 | 6.0 | 10.0 | 0.00 | 0.00 | 0.00 | 27 | 1028.8 |
| 20260509233747 | 75 | 106 | 5.0 | 10.0 | 0.00 | 0.00 | 0.00 | 27 | 1028.8 |
| 20260509232806 | 75 | 100 | 4.0 | 10.0 | 0.00 | 0.00 | 0.00 | 26 | 1028.8 |
| 20260509232307 | 75 | 90 | 4.0 | 11.0 | 0.00 | 0.00 | 0.00 | 27 | 1028.9 |